SCP
1 1 1 1 1 1 0 0 0 0 0 0 0 0 0 0 0 0 0 0 1 1 1 1 1 1 1 1 1 1 1 1 1 1 0 0 0 1 1 1 0 0 0 0 0 0 0 0 0
1 1 1 1 1 0 0 0 0 0 0 0 0 0 0 0 0 0 0 0 1 1 1 1 1 1 1 1 1 1 1 1 1 1 0 0 0 1 1 1 0 0 0 0 0 0 0 0 0
1 1 1 1 0 0 0 0 1 1 1 1 0 1 1 1 0 0 0 0 0 1 1 1 1 1 1 1 1 1 1 1 1 0 0 0 0 1 1 0 0 1 1 1 1 0 0 0 0
1 1 1 1 1 1 0 0 1 1 2 1 1 1 1 1 1 0 0 0 0 0 1 1 1 1 1 1 1 1 1 1 0 0 0 0 0 0 0 0 1 1 1 1 1 1 0 0 0
1 1 1 1 1 1 0 1 1 2 2 2 1 1 1 1 0 0 0 0 0 0 1 1 1 1 1 1 1 1 1 1 0 0 0 0 0 1 1 1 1 1 1 1 1 1 0 0 0
1 1 0 0 0 0 0 0 1 2 2 2 2 1 1 1 0 0 0 0 0 0 1 1 1 1 1 1 1 1 1 1 1 0 0 1 1 1 1 1 1 2 2 2 2 1 1 0 0
1 0 0 0 0 0 0 0 1 1 2 2 2 1 1 1 0 0 0 0 0 0 1 1 1 2 2 1 1 1 1 1 1 1 1 1 1 1 1 1 1 2 2 3 3 2 1 0 0
1 0 0 0 0 0 0 1 1 2 2 2 1 1 1 1 1 1 1 1 0 0 0 1 1 2 1 1 1 1 0 1 1 1 1 1 1 1 1 1 1 2 2 3 3 2 1 1 1
0 0 0 0 0 0 0 1 2 3 2 2 1 1 1 1 1 1 1 1 1 0 0 1 1 1 1 1 1 1 0 0 0 1 1 1 1 1 1 1 1 1 2 3 3 2 1 1 1
0 0 0 0 0 0 0 1 2 3 3 2 2 1 1 1 1 1 1 1 1 1 0 0 0 1 1 1 1 1 1 0 0 0 0 0 0 0 0 1 1 1 2 2 2 2 1 1 1
0 0 0 0 0 0 0 1 2 3 3 2 2 2 2 1 1 1 1 1 1 1 0 0 0 0 0 1 1 1 1 0 0 0 0 0 0 0 0 0 1 1 1 2 2 1 1 1 1
0 0 0 0 0 0 0 1 1 2 2 2 3 3 2 1 1 1 1 1 1 0 0 0 0 0 0 0 0 0 0 0 0 0 0 0 0 0 0 0 0 0 1 1 1 1 1 1 1
0 0 0 0 0 0 1 1 1 1 2 3 3 3 2 1 1 1 1 0 0 0 0 0 0 0 0 0 0 0 0 0 0 1 0 0 0 0 0 0 0 1 1 1 1 1 1 1 1
0 0 0 0 0 1 1 2 1 1 2 3 3 3 2 1 1 1 1 1 0 0 0 0 0 0 0 0 0 0 0 0 0 0 0 0 0 0 0 0 0 1 1 1 1 1 1 1 1
0 0 0 0 0 1 1 1 1 1 2 2 3 2 2 1 1 1 1 1 1 0 0 0 0 0 0 0 0 0 1 1 0 0 0 0 0 0 0 0 0 0 1 1 1 1 1 1 1
0 0 0 0 0 0 1 1 1 1 2 2 2 2 2 1 1 1 1 1 1 0 0 0 0 0 0 0 1 1 1 1 0 1 1 0 0 1 1 1 0 1 1 1 1 1 1 1 1
0 0 0 0 0 0 1 1 1 1 1 1 2 2 1 1 1 1 1 1 1 1 0 0 0 0 1 1 1 1 1 1 0 1 1 1 1 1 1 1 1 1 1 1 1 1 1 1 1
0 0 0 0 0 1 1 1 1 1 1 1 1 1 1 1 1 1 1 0 1 1 1 1 1 1 1 1 1 1 1 1 0 1 1 1 1 1 1 1 1 1 1 1 1 1 1 1 1
0 0 0 0 0 1 1 1 1 1 1 1 1 1 1 1 1 1 1 0 1 1 1 1 1 1 1 1 1 1 1 1 0 1 1 1 1 1 1 1 1 1 1 1 1 1 1 1 1
0 0 0 0 0 1 1 1 1 1 1 1 1 1 2 2 1 1 1 1 1 2 2 2 1 1 1 1 1 1 1 1 1 1 1 1 1 1 1 1 1 1 1 1 1 1 1 1 1
0 0 0 0 1 1 1 1 1 1 1 1 1 1 2 2 1 1 2 2 3 3 2 2 1 1 1 1 1 1 1 1 1 1 1 1 1 1 1 1 1 1 1 1 1 1 1 1 1
0 0 0 0 0 0 0 0 0 0 1 1 1 2 2 2 2 2 3 4 4 3 2 1 1 1 1 1 1 1 1 1 1 1 1 1 1 1 1 1 1 1 1 1 1 1 1 1 1
0 0 0 0 0 0 0 0 0 0 1 1 1 1 1 1 2 3 4 4 3 3 2 1 1 1 1 1 1 1 1 1 1 1 1 1 1 1 1 1 1 1 0 0 1 1 1 1 1
0 0 0 0 0 0 0 0 0 0 0 0 1 1 1 1 2 3 3 3 3 3 2 1 1 1 1 1 2 2 2 1 2 2 2 1 1 1 1 1 1 0 0 0 0 1 1 1 1
0 0 0 0 0 0 0 0 0 0 1 1 1 1 1 1 2 3 3 3 3 3 2 1 1 1 1 2 2 2 2 2 2 2 3 2 2 1 1 1 1 1 0 0 0 1 1 1 1
0 0 0 0 0 0 0 0 0 0 1 1 2 1 1 1 2 3 3 2 2 2 2 1 1 2 2 2 2 3 3 4 3 3 3 4 3 2 1 1 1 1 1 1 1 1 1 1 1
0 0 0 0 0 0 0 0 0 1 1 2 2 2 1 2 2 2 2 2 2 2 1 1 1 2 2 3 3 4 4 5 4 4 5 4 3 2 1 1 1 1 1 1 1 1 1 1 1
0 0 0 0 0 0 0 0 1 1 1 2 2 1 1 2 2 2 2 2 2 2 2 2 1 2 2 3 3 4 4 5 5 5 5 4 2 1 1 1 1 1 1 1 1 2 2 2 2
0 0 0 0 0 0 0 0 1 1 1 1 1 1 2 3 4 4 3 3 2 2 2 2 2 2 2 2 3 4 4 4 4 3 3 2 1 1 1 1 1 1 1 1 2 2 2 2 2
0 0 0 0 0 0 0 0 0 0 1 1 1 1 2 4 5 5 4 3 3 3 3 3 3 2 2 2 3 4 4 4 3 2 2 1 1 1 1 1 1 1 1 1 2 2 3 2 2
Wind_Speed
8 5 2 1 4 4 2 2 1 1 2 2 4 5 5 3 2 2 0 4 5 5 3 6 9 10 11 11 12 13 13 14 14 13 13 12 12 12 11 11 10 10 9 9 9 8 8 8 8
5 4 1 2 4 3 2 2 1 1 3 4 4 4 5 4 3 4 2 3 6 5 3 5 9 10 10 10 11 13 13 13 13 13 12 11 11 11 10 10 9 9 8 8 8 8 8 7 7
6 2 2 3 3 2 1 1 2 3 3 3 3 4 4 2 3 3 3 6 6 4 3 5 10 10 9 9 10 12 12 12 12 11 11 10 10 10 9 9 8 8 7 7 7 7 7 6 6
2 1 3 4 2 1 2 2 3 3 3 4 4 5 4 3 3 4 7 8 7 4 3 5 10 9 9 9 10 12 11 11 11 10 10 9 9 9 8 8 7 7 6 6 6 5 5 5 4
1 3 5 3 2 1 1 2 1 2 2 3 4 4 3 3 6 9 8 7 6 4 3 4 9 9 9 9 10 10 10 10 10 9 8 8 8 7 7 7 6 6 5 5 5 5 4 4 3
3 3 4 1 2 2 1 1 2 3 3 4 4 4 2 2 6 7 7 6 5 4 3 3 7 8 8 9 9 9 9 9 8 8 7 7 7 6 6 6 5 5 4 4 4 3 3 3 2
3 3 2 1 1 1 1 1 3 3 3 3 4 5 2 2 5 7 6 5 5 4 3 2 2 4 7 8 8 8 8 8 7 7 7 6 6 5 5 4 4 4 4 4 3 3 3 2 2
3 4 2 0 1 2 1 2 2 3 3 4 4 6 5 5 7 7 6 5 4 3 2 2 2 2 2 2 6 6 6 6 6 6 5 5 5 4 4 3 3 3 4 4 3 3 2 2 1
3 4 1 3 4 2 2 2 2 3 5 3 2 4 6 12 10 8 6 3 3 3 1 1 2 1 1 1 3 3 4 4 4 3 3 2 1 0 1 2 3 4 4 3 3 3 3 2 1
3 3 5 4 4 4 3 3 4 3 3 2 4 6 11 12 10 9 7 6 5 4 3 2 2 2 1 2 1 1 1 1 1 1 0 1 1 0 1 2 4 4 4 3 3 4 3 1 0
4 5 3 3 4 4 4 3 3 6 3 5 8 12 13 11 9 8 7 6 6 5 4 3 3 2 2 1 1 0 0 0 1 1 1 0 0 0 1 1 2 2 2 1 1 1 1 0 1
3 4 3 2 3 4 5 4 3 4 5 6 11 14 14 12 10 10 9 7 5 5 5 4 4 3 3 2 1 1 1 1 1 1 1 1 0 0 0 0 1 1 1 1 0 0 1 1 2
2 2 1 2 3 4 4 3 3 2 3 9 12 12 12 11 8 7 6 5 5 6 6 5 5 4 3 2 2 2 2 1 1 1 1 2 1 1 1 1 1 1 1 1 1 1 2 2 2
2 0 1 1 2 2 5 2 2 2 7 10 11 10 10 10 9 7 6 6 6 7 6 5 5 5 4 3 3 2 2 1 1 1 2 2 2 1 1 1 1 1 1 1 1 2 2 2 1
2 3 4 2 1 2 5 2 2 4 9 10 9 9 8 8 8 9 9 8 7 6 6 5 5 5 4 4 4 3 2 2 2 2 2 2 2 2 1 1 1 1 1 1 1 1 1 1 1
3 4 2 2 1 2 5 3 3 6 9 9 8 8 8 7 8 8 8 7 7 6 5 5 5 5 5 4 3 2 2 2 2 2 2 2 2 2 1 1 2 1 0 0 1 1 0 1 1
4 1 1 3 1 2 3 4 3 7 8 8 8 8 8 7 7 6 7 7 7 7 6 6 5 5 5 4 3 2 2 2 1 1 1 1 2 2 2 2 1 1 0 0 1 1 1 1 1
2 1 2 3 2 3 2 4 2 7 9 8 8 7 7 8 8 6 6 6 6 6 5 6 4 4 4 2 1 1 1 1 1 1 2 2 1 2 2 1 1 1 1 0 0 0 0 1 1
3 2 3 5 3 3 4 3 3 6 7 8 7 7 7 8 6 4 5 6 5 5 5 5 5 4 3 2 2 2 2 1 1 2 2 2 2 2 2 1 1 1 1 1 1 1 1 0 0
2 2 4 4 1 3 2 2 2 5 8 8 9 9 8 6 4 5 5 6 7 7 6 5 5 5 4 3 3 2 2 1 2 1 1 2 2 2 2 2 2 1 1 1 1 1 1 0 1
3 5 5 3 2 3 2 3 2 2 3 4 5 6 7 9 8 7 7 7 7 8 8 7 6 6 5 4 2 2 2 1 0 0 1 1 2 2 2 3 2 2 2 2 1 2 2 1 1
4 5 5 3 2 1 1 2 5 3 3 5 6 6 7 7 7 7 8 8 8 9 7 6 6 6 5 5 4 4 4 3 3 1 1 1 1 1 2 2 2 2 2 2 2 2 2 2 1
5 1 3 2 3 2 2 1 7 1 4 7 7 8 8 8 8 9 9 9 8 7 6 5 5 5 5 5 5 4 3 3 2 1 1 1 1 1 2 2 2 2 2 2 2 2 2 2 2
3 6 6 5 5 1 2 2 6 4 6 5 6 7 7 7 8 7 6 6 5 5 5 5 5 4 4 5 5 5 5 4 3 2 2 1 1 1 1 2 2 2 2 2 2 2 2 2 2
4 6 4 5 4 4 1 2 8 6 4 5 5 5 5 5 6 6 7 7 6 7 7 6 6 6 5 5 5 5 6 5 5 4 4 3 2 1 2 1 1 1 2 2 2 2 2 2 2
3 8 7 5 4 4 1 4 7 4 3 2 2 3 2 3 3 5 6 7 6 7 7 7 7 7 6 6 6 5 5 4 4 4 4 4 3 2 2 2 2 2 2 2 2 1 2 1 2
5 3 5 7 3 1 4 5 8 3 3 1 0 1 1 2 3 4 4 4 5 5 6 7 8 7 7 8 6 5 5 5 5 4 4 3 3 3 3 3 3 2 2 2 2 1 2 1 2
5 8 5 6 6 3 4 4 5 5 4 2 1 1 1 1 1 2 3 3 4 5 5 4 6 7 7 7 7 6 5 5 5 4 4 4 4 3 3 3 3 2 2 2 2 1 1 1 1
3 4 5 5 4 6 3 7 5 6 5 4 3 3 3 2 1 2 2 3 3 3 4 4 4 4 5 6 6 5 5 5 5 5 5 4 4 4 4 4 3 3 3 3 2 2 2 2 1
4 6 7 6 4 4 4 8 4 4 4 3 3 2 1 1 1 1 1 2 2 2 3 3 3 4 4 5 5 5 4 4 4 4 4 4 4 3 4 3 3 3 3 3 3 3 3 3 3
Wind_Direction
151 145 147 91 53 47 17 329 344 70 72 64 84 90 101 89 104 136 99 120 118 123 127 132 128 128 128 129 133 132 129 129 128 128 129 127 125 124 124 123 121 120 119 117 115 113 112 109 110
144 155 140 56 71 56 338 320 41 89 140 130 87 79 77 71 68 104 118 128 121 122 118 125 129 128 127 129 137 139 133 130 129 130 130 129 127 126 126 125 124 123 120 119 117 116 116 115 115
158 175 77 63 71 137 227 272 116 93 113 95 77 62 73 91 117 134 138 129 117 112 110 132 131 127 126 123 126 133 133 131 131 132 133 132 131 131 128 128 128 127 125 123 122 122 123 123 122
151 62 53 60 45 243 200 200 143 123 81 63 90 73 64 70 129 130 127 127 118 109 108 132 132 131 128 124 123 129 134 135 136 135 136 135 135 135 133 133 133 133 133 132 129 127 128 127 126
80 73 52 34 351 316 177 175 143 97 80 68 84 85 51 35 95 116 125 126 123 114 109 129 135 135 133 131 131 134 136 138 139 140 142 141 139 139 141 142 144 144 144 141 138 137 135 131 125
60 64 68 19 326 342 77 125 110 86 88 92 91 88 54 88 112 126 125 120 117 116 109 119 138 138 136 135 136 139 141 143 148 151 152 148 147 150 152 155 158 160 160 155 155 156 156 152 147
98 84 113 175 305 323 166 113 120 124 109 121 116 98 90 129 129 124 114 107 105 106 104 94 117 137 146 145 144 146 147 152 158 161 160 160 162 166 168 171 174 179 181 182 183 188 175 175 182
126 99 85 193 186 245 163 112 118 123 114 119 118 137 170 170 132 113 103 98 102 104 107 105 100 102 116 139 154 156 159 160 163 169 173 175 175 175 178 179 192 203 205 203 208 215 198 198 212
112 82 187 208 188 212 170 123 126 102 115 117 111 148 153 136 129 120 115 108 123 139 130 132 130 123 124 151 173 164 167 167 163 166 178 169 96 111 204 220 219 220 224 223 232 248 235 226 240
109 141 220 209 185 179 191 166 150 124 118 99 82 94 124 136 143 149 157 165 173 179 182 178 176 172 166 182 152 112 144 113 99 86 105 91 104 242 245 259 252 245 243 242 244 255 252 242 294
162 192 224 228 198 166 163 153 147 138 182 192 161 146 145 149 157 166 176 180 186 186 189 187 192 191 186 189 168 130 106 111 124 163 174 123 68 327 319 324 313 325 306 289 269 288 323 281 227
177 234 203 214 163 156 162 148 143 171 207 171 153 150 154 163 174 181 184 188 183 186 200 197 188 193 201 198 193 170 173 190 197 203 186 157 164 257 275 263 299 322 329 308 277 236 255 254 247
189 249 240 200 154 160 141 149 154 198 123 126 137 149 163 173 183 188 187 189 187 196 204 201 191 197 198 193 212 202 203 203 196 186 200 188 191 215 240 261 273 275 262 234 239 240 244 249 254
205 71 337 42 115 137 132 124 120 178 132 136 150 164 173 179 182 179 183 191 195 201 203 198 198 200 192 196 206 208 205 207 200 206 213 201 193 204 216 243 260 265 246 228 224 237 246 257 256
73 46 17 23 76 129 113 78 214 166 142 148 163 172 178 185 182 188 190 191 195 197 195 195 202 195 197 203 208 202 199 195 209 220 216 207 194 200 204 223 250 258 243 215 216 252 251 252 241
48 54 14 299 100 117 121 235 237 155 151 162 173 183 188 195 198 199 192 190 190 187 184 195 202 189 200 202 201 190 192 196 211 214 218 217 207 198 188 213 244 251 226 179 182 193 196 267 262
34 51 277 304 183 127 141 240 241 158 160 176 186 194 196 202 208 205 195 192 190 188 184 188 195 186 195 195 190 188 179 196 210 204 209 219 212 198 189 212 236 213 169 204 222 168 172 213 264
239 239 270 264 240 125 184 246 229 172 176 188 195 199 199 205 213 201 192 193 190 187 187 188 189 184 179 170 163 166 183 212 203 195 210 208 205 187 179 194 228 172 150 193 167 148 133 199 232
187 200 258 261 219 167 204 236 221 178 185 196 201 205 206 212 212 199 192 187 184 184 188 192 187 180 161 162 172 181 208 210 205 206 203 200 194 174 165 173 182 173 187 203 168 142 119 55 97
182 238 268 289 181 161 196 263 242 187 200 200 200 205 208 210 203 201 199 194 190 189 195 193 191 180 181 189 180 177 171 185 198 213 192 193 191 185 182 176 186 180 175 174 155 147 139 175 125
220 197 225 233 23 56 91 331 279 233 218 212 211 206 206 206 204 203 199 200 193 194 196 199 194 188 192 186 153 133 102 72 85 207 214 210 192 193 190 184 181 186 178 194 204 181 169 182 198
255 219 196 179 115 326 92 279 288 250 238 229 225 215 211 208 203 203 199 197 201 203 195 196 192 189 187 174 172 176 179 188 202 193 204 233 198 200 193 187 185 192 191 199 211 191 186 174 189
220 133 129 122 121 61 23 152 289 315 249 246 231 224 218 207 203 205 202 200 199 194 185 184 178 182 180 175 177 179 185 185 175 164 183 219 228 212 204 193 191 197 204 213 215 197 186 183 180
146 71 59 52 73 41 255 165 279 247 232 246 229 222 216 206 204 204 199 190 187 179 173 173 171 188 183 177 181 180 182 179 171 179 191 214 222 216 216 188 183 196 201 210 215 204 192 197 188
93 90 39 8 16 255 264 193 250 255 246 232 226 219 211 199 196 193 186 185 187 183 181 180 178 194 191 183 189 191 190 185 191 194 196 200 203 213 225 196 180 197 204 203 197 191 203 193 188
166 139 156 187 215 266 322 231 254 276 281 260 222 202 182 180 183 191 193 188 189 190 186 185 190 198 193 192 198 198 195 193 201 199 196 199 203 205 208 196 188 192 194 199 189 195 215 198 203
135 150 157 131 140 229 276 284 301 318 333 345 68 108 173 190 183 183 182 182 186 190 198 198 197 199 199 199 199 202 199 197 201 197 194 196 201 197 196 189 185 188 188 189 184 195 213 198 202
127 140 103 120 145 225 281 275 264 281 280 284 215 186 197 187 174 166 168 176 186 190 197 202 202 204 202 198 202 204 203 203 198 188 192 196 199 197 194 191 185 187 190 191 190 198 218 193 215
97 95 104 112 147 157 226 265 232 226 231 224 210 195 187 184 178 179 169 179 177 172 176 191 198 200 202 203 203 202 203 202 197 196 201 200 199 195 195 193 194 195 198 197 194 211 207 205 224
156 158 145 149 198 169 175 260 269 221 225 209 202 183 175 185 187 155 110 98 119 153 173 192 203 202 206 200 195 200 202 198 202 209 210 197 196 196 199 196 193 199 203 203 201 214 215 212 219